Hourly Data Report for October 16, 2015

All times are specified in Local Standard Time (LST). Add 1 hour to adjust for Daylight Saving Time where and when it is observed.

OTTAWA INTL A
ONTARIO

45°19'00.000" N
75°40'00.000" W
114.90 m
6106001
71628
YOW

Download Data

Hourly Data (October 2015)
Hourly Data Report for October 16, 2015
Temp Definition
°C
Dew Point Temp Definition
°C
Rel Hum Definition
%
Wind Dir Definition
10's deg

Wind Spd Definition
km/h
Visibility Definition
km
Stn Press Definition
kPa
Hmdx Definition


Wind Chill Definition


Weather Definition


TIME
00:00 Legend Double Dagger 6.7 4.5 86 26 24 24.1 99.30     LegendNANA
01:00 Legend Double Dagger 6.4 4.4 87 27 18 24.1 99.38     Mostly Cloudy
02:00 Legend Double Dagger 5.8 4.3 90 27 21 24.1 99.42     LegendNANA
03:00 Legend Double Dagger 5.9 4.4 90 26 16 24.1 99.49     LegendNANA
04:00 Legend Double Dagger 6.1 4.6 90 25 15 24.1 99.55     Mostly Cloudy
05:00 Legend Double Dagger 6.1 4.6 90 25 17 24.1 99.65     LegendNANA
06:00 Legend Double Dagger 5.5 4.0 90 26 16 24.1 99.71     LegendNANA
07:00 Legend Double Dagger 5.9 4.6 91 26 12 24.1 99.78     Mostly Cloudy
08:00 Legend Double Dagger 7.0 5.3 89 27 11 24.1 99.87     LegendNANA
09:00 Legend Double Dagger 7.8 5.3 84 28 13 24.1 99.91     LegendNANA
10:00 Legend Double Dagger 9.0 3.4 68 31 12 24.1 99.96     Mostly Cloudy
11:00 Legend Double Dagger 8.5 3.6 71 29 12 24.1 100.01     LegendNANA
12:00 Legend Double Dagger 9.4 2.7 63 27 15 24.1 100.00     LegendNANA
13:00 Legend Double Dagger 9.6 3.2 64 26 15 24.1 99.96     Mostly Cloudy
14:00 Legend Double Dagger 9.7 3.0 63 30 14 24.1 99.95     LegendNANA
15:00 Legend Double Dagger 9.7 1.9 58 27 11 24.1 99.95     LegendNANA
16:00 Legend Double Dagger 9.2 2.1 61 29 10 24.1 99.95     Mostly Cloudy
17:00 Legend Double Dagger 8.2 2.7 68 29 8 24.1 99.94     LegendNANA
18:00 Legend Double Dagger 8.4 2.7 67 32 6 24.1 99.97     LegendNANA
19:00 Legend Double Dagger 7.6 4.0 78 5 4 24.1 99.95     Rain Showers
20:00
21:00 Legend Double Dagger 5.7 4.2 90 6 5 24.1 99.94     Rain
22:00 Legend Double Dagger 5.7 4.7 93 36 9 16.1 99.92     Rain
23:00 Legend Double Dagger 5.3 4.3 93 1 9 11.3 99.91     Rain

Notes on Data Quality.

Legend

  • E = Estimated
  • M = Missing
  • NA = Not Available
  • ‡ = Partner data that is not subject to review by the National Climate Archives
Date modified: